| time (UTC) | temp F | wind direction | speed MPH | gust MPH | rain 1hr in | rain 24hr in | rain mn in | humidity % | barometer mb |
| 20260906150058 | 53 | 65 | 3.0 | 7.0 | 0.00 | 0.00 | 0.00 | 79 | 1013.0 |
| 20260906144557 | 53 | 354 | 4.0 | 10.0 | 0.00 | 0.00 | 0.00 | 81 | 1013.1 |
| 20260906143103 | 53 | 21 | 6.0 | 14.0 | 0.00 | 0.00 | 0.00 | 82 | 1013.2 |
| 20260906141556 | 53 | 8 | 7.0 | 14.0 | 0.00 | 0.00 | 0.00 | 84 | 1013.4 |
| 20260906140055 | 52 | 358 | 7.0 | 14.0 | 0.00 | 0.00 | 0.00 | 85 | 1013.4 |
| 20260906134554 | 52 | 73 | 9.0 | 13.0 | 0.00 | 0.00 | 0.00 | 85 | 1013.5 |
| 20260906133054 | 52 | 345 | 5.0 | 10.0 | 0.00 | 0.00 | 0.00 | 84 | 1013.6 |
| 20260906131553 | 51 | 83 | 6.0 | 12.0 | 0.00 | 0.00 | 0.00 | 82 | 1013.5 |
| 20260906130052 | 50 | 345 | 4.0 | 11.0 | 0.00 | 0.00 | 0.00 | 84 | 1013.8 |
| 20260906124552 | 51 | 66 | 6.0 | 12.0 | 0.00 | 0.00 | 0.00 | 84 | 1013.6 |
| 20260906123051 | 51 | 345 | 7.0 | 10.0 | 0.00 | 0.00 | 0.00 | 83 | 1013.3 |
| 20260906121555 | 52 | 345 | 7.0 | 12.0 | 0.00 | 0.00 | 0.00 | 83 | 1013.4 |
| 20260906120109 | 51 | 345 | 3.0 | 10.0 | 0.00 | 0.00 | 0.00 | 83 | 1013.5 |
| 20260906114549 | 51 | 345 | 4.0 | 12.0 | 0.00 | 0.00 | 0.00 | 83 | 1013.3 |
| 20260906113054 | 51 | 345 | 3.0 | 4.0 | 0.00 | 0.00 | 0.00 | 81 | 1013.9 |
| 20260906111604 | 51 | 345 | 5.0 | 8.0 | 0.00 | 0.00 | 0.00 | 79 | 1013.2 |
| 20260906110046 | 51 | 345 | 9.0 | 12.0 | 0.00 | 0.00 | 0.00 | 80 | 1013.0 |
| 20260906104545 | 51 | 345 | 1.0 | 8.0 | 0.00 | 0.00 | 0.00 | 80 | 1013.5 |
| 20260906103045 | 51 | 77 | 1.0 | 8.0 | 0.00 | 0.00 | 0.00 | 80 | 1013.1 |
| 20260906101542 | 51 | 345 | 8.0 | 13.0 | 0.00 | 0.00 | 0.00 | 80 | 1012.7 |
| 20260906100040 | 50 | 345 | 6.0 | 13.0 | 0.00 | 0.00 | 0.00 | 82 | 1012.8 |
| 20260906094542 | 48 | 345 | 11.0 | 16.0 | 0.00 | 0.00 | 0.00 | 85 | 1012.3 |
| 20260906093040 | 47 | 345 | 7.0 | 9.0 | 0.00 | 0.00 | 0.00 | 84 | 1011.4 |
| 20260906091535 | 48 | 345 | 3.0 | 5.0 | 0.00 | 0.00 | 0.00 | 84 | 1011.2 |
| 20260906090029 | 48 | 345 | 4.0 | 6.0 | 0.00 | 0.00 | 0.00 | 81 | 1011.4 |
| 20260906084542 | 50 | 345 | 2.0 | 5.0 | 0.00 | 0.00 | 0.00 | 81 | 1011.6 |
| 20260906083034 | 50 | 345 | 2.0 | 4.0 | 0.00 | 0.00 | 0.00 | 80 | 1011.8 |
| 20260906081523 | 50 | 345 | 3.0 | 5.0 | 0.00 | 0.00 | 0.00 | 80 | 1011.6 |
| 20260906080029 | 51 | 345 | 1.0 | 6.0 | 0.00 | 0.00 | 0.00 | 79 | 1011.8 |
| 20260906074520 | 51 | 345 | 5.0 | 13.0 | 0.00 | 0.00 | 0.00 | 80 | 1011.8 |
| 20260906073018 | 52 | 345 | 12.0 | 22.0 | 0.00 | 0.00 | 0.00 | 79 | 1012.0 |
| 20260906071515 | 52 | 345 | 15.0 | 23.0 | 0.00 | 0.00 | 0.00 | 78 | 1012.2 |
| 20260906070011 | 52 | 345 | 8.0 | 13.0 | 0.00 | 0.00 | 0.00 | 77 | 1012.3 |
| 20260906064514 | 52 | 345 | 2.0 | 9.0 | 0.00 | 0.00 | 0.00 | 76 | 1012.4 |
| 20260906063008 | 53 | 345 | 10.0 | 18.0 | 0.00 | 0.00 | 0.00 | 75 | 1012.4 |
| 20260906061506 | 53 | 314 | 6.0 | 15.0 | 0.00 | 0.00 | 0.00 | 72 | 1012.7 |
| 20260906060004 | 54 | 336 | 14.0 | 23.0 | 0.00 | 0.00 | 0.00 | 71 | 1012.4 |
| 20260906054602 | 54 | 83 | 13.0 | 26.0 | 0.00 | 0.00 | 0.00 | 70 | 1012.8 |
| 20260906053100 | 54 | 102 | 15.0 | 25.0 | 0.00 | 0.00 | 0.00 | 69 | 1012.7 |
| 20260906051608 | 55 | 63 | 15.0 | 21.0 | 0.00 | 0.00 | 0.00 | 67 | 1012.9 |
| 20260906050059 | 56 | 62 | 18.0 | 28.0 | 0.00 | 0.00 | 0.00 | 66 | 1013.0 |
| 20260906044558 | 57 | 66 | 18.0 | 27.0 | 0.00 | 0.00 | 0.00 | 64 | 1012.8 |
| 20260906043059 | 57 | 69 | 16.0 | 31.0 | 0.00 | 0.00 | 0.00 | 63 | 1012.7 |
| 20260906041605 | 58 | 63 | 15.0 | 24.0 | 0.00 | 0.00 | 0.00 | 62 | 1012.6 |
| 20260906040106 | 58 | 358 | 12.0 | 18.0 | 0.00 | 0.00 | 0.00 | 60 | 1012.5 |
| 20260906034557 | 59 | 200 | 8.0 | 16.0 | 0.00 | 0.00 | 0.00 | 59 | 1012.5 |
| 20260906033056 | 59 | 201 | 5.0 | 15.0 | 0.00 | 0.00 | 0.00 | 58 | 1012.5 |
| 20260906031556 | 60 | 177 | 9.0 | 12.0 | 0.00 | 0.00 | 0.00 | 58 | 1012.4 |
| 20260906030055 | 60 | 358 | 12.0 | 17.0 | 0.00 | 0.00 | 0.00 | 58 | 1011.9 |
| 20260906024608 | 61 | 354 | 11.0 | 18.0 | 0.00 | 0.00 | 0.00 | 57 | 1011.5 |
| 20260906023034 | 61 | 23 | 14.0 | 18.0 | 0.00 | 0.00 | 0.00 | 57 | 1011.1 |
| 20260906021535 | 61 | 11 | 11.0 | 21.0 | 0.00 | 0.00 | 0.00 | 56 | 1010.8 |
| 20260906020044 | 62 | 356 | 12.0 | 18.0 | 0.00 | 0.00 | 0.00 | 56 | 1010.7 |
| 20260906014549 | 62 | 2 | 12.0 | 25.0 | 0.00 | 0.00 | 0.00 | 55 | 1010.6 |
| 20260906013034 | 64 | 14 | 14.0 | 20.0 | 0.00 | 0.00 | 0.00 | 53 | 1010.3 |
| 20260906011539 | 64 | 354 | 12.0 | 20.0 | 0.00 | 0.00 | 0.00 | 50 | 1010.4 |
| 20260906010031 | 65 | 4 | 14.0 | 18.0 | 0.00 | 0.00 | 0.00 | 49 | 1010.3 |
| 20260906004538 | 67 | 9 | 9.0 | 16.0 | 0.00 | 0.00 | 0.00 | 47 | 1010.4 |
| 20260906003044 | 67 | 40 | 10.0 | 15.0 | 0.00 | 0.00 | 0.00 | 47 | 1010.3 |
| 20260906001530 | 68 | 25 | 9.0 | 16.0 | 0.00 | 0.00 | 0.00 | 46 | 1010.1 |
| 20260906000032 | 68 | 17 | 12.0 | 16.0 | 0.00 | 0.00 | 0.00 | 46 | 1010.2 |
| 20260905234528 | 69 | 4 | 11.0 | 16.0 | 0.00 | 0.00 | 0.00 | 45 | 1010.3 |
| 20260905233030 | 69 | 355 | 12.0 | 16.0 | 0.00 | 0.00 | 0.00 | 45 | 1010.2 |
| 20260905231535 | 69 | 42 | 8.0 | 15.0 | 0.00 | 0.00 | 0.00 | 45 | 1010.2 |
| 20260905230027 | 69 | 62 | 6.0 | 17.0 | 0.00 | 0.00 | 0.00 | 45 | 1010.3 |
| 20260905224530 | 69 | 56 | 4.0 | 13.0 | 0.00 | 0.00 | 0.00 | 45 | 1010.4 |
| 20260905223026 | 70 | 32 | 6.0 | 14.0 | 0.00 | 0.00 | 0.00 | 43 | 1010.5 |
| 20260905221524 | 70 | 38 | 7.0 | 13.0 | 0.00 | 0.00 | 0.00 | 42 | 1010.7 |
| 20260905220024 | 70 | 110 | 3.0 | 10.0 | 0.00 | 0.00 | 0.00 | 42 | 1010.8 |
| 20260905214523 | 70 | 46 | 4.0 | 9.0 | 0.00 | 0.00 | 0.00 | 42 | 1011.0 |
| 20260905213036 | 70 | 100 | 3.0 | 15.0 | 0.00 | 0.00 | 0.00 | 41 | 1011.3 |
| 20260905211519 | 69 | 52 | 3.0 | 12.0 | 0.00 | 0.00 | 0.00 | 45 | 1011.5 |
| 20260905210015 | 67 | 69 | 2.0 | 13.0 | 0.00 | 0.00 | 0.00 | 45 | 1011.7 |
| 20260905204518 | 67 | 79 | 4.0 | 11.0 | 0.00 | 0.00 | 0.00 | 47 | 1012.0 |
| 20260905203013 | 67 | 100 | 5.0 | 14.0 | 0.00 | 0.00 | 0.00 | 48 | 1012.0 |
| 20260905201512 | 65 | 101 | 4.0 | 12.0 | 0.00 | 0.00 | 0.00 | 49 | 1012.0 |
| 20260905200011 | 65 | 206 | 2.0 | 14.0 | 0.00 | 0.00 | 0.00 | 49 | 1012.2 |
| 20260905194509 | 65 | 106 | 10.0 | 13.0 | 0.00 | 0.00 | 0.00 | 50 | 1012.4 |
| 20260905193006 | 64 | 92 | 3.0 | 13.0 | 0.00 | 0.00 | 0.00 | 50 | 1012.4 |
| 20260905191504 | 63 | 35 | 2.0 | 11.0 | 0.00 | 0.00 | 0.00 | 53 | 1012.6 |
| 20260905190005 | 63 | 56 | 4.0 | 12.0 | 0.00 | 0.00 | 0.00 | 53 | 1012.9 |
| 20260905184505 | 62 | 73 | 4.0 | 10.0 | 0.00 | 0.00 | 0.00 | 55 | 1013.0 |
| 20260905183101 | 62 | 129 | 4.0 | 13.0 | 0.00 | 0.00 | 0.00 | 55 | 1013.0 |
| 20260905181601 | 60 | 69 | 2.0 | 13.0 | 0.00 | 0.00 | 0.00 | 58 | 1013.1 |
| 20260905180100 | 60 | 251 | 1.0 | 11.0 | 0.00 | 0.00 | 0.00 | 58 | 1013.2 |
| 20260905174556 | 60 | 67 | 3.0 | 13.0 | 0.00 | 0.00 | 0.00 | 59 | 1013.2 |
| 20260905173052 | 59 | 81 | 6.0 | 11.0 | 0.00 | 0.00 | 0.00 | 60 | 1013.2 |
| 20260905171547 | 57 | 35 | 7.0 | 11.0 | 0.00 | 0.00 | 0.00 | 63 | 1013.4 |
| 20260905170051 | 56 | 13 | 9.0 | 14.0 | 0.00 | 0.00 | 0.00 | 65 | 1013.3 |
| 20260905164545 | 56 | 23 | 11.0 | 15.0 | 0.00 | 0.00 | 0.00 | 66 | 1013.3 |
| 20260905163042 | 56 | 11 | 9.0 | 15.0 | 0.00 | 0.00 | 0.00 | 67 | 1013.2 |
| 20260905161537 | 55 | 31 | 5.0 | 13.0 | 0.00 | 0.00 | 0.00 | 70 | 1013.4 |
| 20260905160043 | 54 | 10 | 9.0 | 13.0 | 0.00 | 0.00 | 0.00 | 72 | 1013.4 |
| 20260905154532 | 54 | 22 | 7.0 | 13.0 | 0.00 | 0.00 | 0.00 | 74 | 1013.3 |
| 20260905153036 | 53 | 16 | 7.0 | 13.0 | 0.00 | 0.00 | 0.00 | 75 | 1013.5 |
| 20260905151529 | 52 | 24 | 9.0 | 14.0 | 0.00 | 0.00 | 0.00 | 76 | 1013.4 |